#timestamp,LO_Frequency,Hit,StdDev 
1508234415.7,286046998.0,N
1508234435.6,286046997.2,N
1508234455.4,286046996.4,N
1508234475.2,286046993.5,N
1508234495.1,286046994.1,N
1508234496.0,286046994.1,N
1508234515.8,286046990.7,Y
1508234535.6,286046992.9,P
1508234555.5,286046991.3,N
1508234575.3,286046993.2,N
1508234595.1,286046995.8,N
1508234615.8,286046996.2,N
1508234635.7,286046996.0,N
1508234655.5,286046994.9,N
1508234675.4,286046991.6,Y
1508234695.2,286046997.5,P
1508234715.0,286046998.6,N
1508234715.9,286046998.6,N
1508234735.8,286047006.0,Y
1508234755.6,286047004.3,P
1508234775.4,286047003.2,N
1508234795.3,286047010.7,P
1508234815.1,286047010.0,N
1508234816.0,286047010.0,N
1508234835.8,286047006.5,N
1508234855.6,286047008.7,N
1508234875.5,286047006.6,N
1508234895.3,286047006.4,N
1508234915.1,286047005.1,N
1508234935.9,286047008.7,N
1508234955.7,286047004.7,N
1508234975.5,286047001.9,N
1508234995.4,286047000.5,N
1508235015.2,286046998.4,N
1508235035.0,286047001.1,N
1508235035.9,286047001.1,N
1508235055.8,286047000.6,N
1508235075.6,286047000.9,N
1508235095.4,286047002.6,N
1508235115.3,286047000.0,N
1508235135.1,286047005.6,N
1508235136.0,286047005.6,N
1508235155.8,286047005.0,N
1508235175.7,286047003.4,N
1508235195.5,286047003.5,N
1508235215.3,286047003.1,N
1508235235.2,286047003.5,N
1508235255.9,286047002.9,N
1508235275.7,286047003.4,N
1508235295.6,286047004.2,N
1508235315.4,286047002.1,N
1508235335.2,286047004.2,N
1508235355.1,286047004.9,N
1508235356.0,286047004.9,N
1508235375.8,286047006.7,N
1508235395.6,286047008.0,Y
1508235415.5,286047006.4,P
1508235435.3,286047005.7,P
1508235455.1,286047004.1,P
1508235475.9,286046996.9,N
1508235495.7,286046999.5,N
1508235515.5,286046998.3,N
1508235535.3,286046998.0,N
1508235555.2,286046993.3,N
1508235575.0,286046998.8,N
1508235575.9,286046998.8,N
1508235595.7,286046996.7,N
1508235615.6,286046999.6,N
1508235635.4,286047001.2,N
1508235655.2,286046999.0,N
1508235675.1,286046998.5,N
1508235676.0,286046998.5,N
1508235695.8,286047001.1,N
1508235715.6,286047004.2,N
1508235735.5,286047000.1,N
1508235755.3,286047001.1,N
1508235775.1,286046997.0,N
1508235795.9,286046999.6,N
1508235815.7,286047005.5,N
1508235835.5,286047001.5,N
1508235855.4,286047002.7,N
1508235875.2,286047006.0,N
1508235895.0,286047005.9,N
1508235895.9,286047005.9,N
1508235915.8,286047000.0,N
1508235935.6,286046997.3,N
1508235955.4,286047000.0,N
1508235975.3,286047002.6,N
1508235995.1,286047000.8,N
1508235996.0,286047000.8,N
1508236015.8,286046998.2,N
1508236035.7,286047001.2,N
1508236055.5,286047003.4,N
1508236075.3,286047006.6,N
1508236095.1,286047004.7,N
1508236115.9,286047007.6,N
1508236135.7,286047003.8,N
1508236155.5,286047001.4,N
1508236175.5,286047000.8,N
1508236195.3,286046999.5,N
1508236215.1,286046999.6,N
1508236235.9,286046997.9,N
1508236255.7,286046996.0,N
1508236275.5,286046993.7,N
1508236295.4,286046992.7,N
1508236315.2,286046993.7,N
1508236335.0,286046992.7,N
1508236335.9,286046992.7,N
1508236355.8,286046991.8,N
1508236375.6,286046994.9,N
1508236395.4,286046997.5,N
1508236415.3,286046996.4,N
1508236435.1,286046998.9,N
1508236436.0,286046998.9,N
1508236455.8,286046996.4,N
1508236475.7,286046991.8,N
1508236495.5,286046994.6,N
1508236515.3,286046991.7,N
1508236535.2,286046992.5,N
1508236555.9,286046996.4,N
1508236575.7,286046994.4,N
1508236595.6,286046996.0,N
1508236615.4,286046999.6,N
1508236635.2,286046998.2,N
1508236655.0,286046995.2,N
1508236656.0,286046995.2,N
1508236675.8,286046992.2,N
1508236695.6,286046996.1,N
1508236715.5,286046991.9,Y
1508236735.3,286047000.7,P
1508236755.1,286046997.2,N
1508236775.8,286046997.0,N
1508236795.7,286046997.4,N
1508236815.5,286046994.2,Y
1508236835.4,286046995.9,P
1508236855.2,286046995.7,P
1508236875.0,286046995.0,P
1508236875.9,286046995.0,Y
1508236895.8,286046999.8,P
1508236915.6,286047002.6,N
1508236935.4,286046999.3,N
1508236955.3,286047002.1,N
1508236975.1,286047007.3,Y
1508236995.9,286047003.3,P
1508237015.7,286047004.5,N
1508237035.5,286047003.2,N
1508237055.4,286047005.4,Y
1508237075.2,286047000.5,P
1508237095.0,286047002.8,N
1508237095.9,286047002.8,N
1508237115.8,286046998.6,N
1508237135.6,286046994.9,Y
1508237155.4,286046994.6,P
1508237175.3,286046992.3,N
1508237195.1,286046992.2,N
1508237196.0,286046992.2,N
1508237215.8,286046993.1,N
1508237235.7,286046992.9,N
1508237255.5,286046988.6,Y
1508237275.3,286046995.9,P
1508237295.2,286046995.0,P
1508237315.9,286046997.8,P
1508237335.7,286046997.5,N
1508237355.6,286046995.0,Y
1508237375.4,286046998.8,P
1508237395.2,286046999.2,N
1508237415.1,286046999.8,N
1508237416.0,286046999.8,N
1508237435.8,286046999.7,N
1508237455.6,286047003.2,N
1508237475.5,286047000.4,N
1508237495.3,286047001.7,N
1508237515.1,286047002.3,N
1508237535.9,286047002.3,N
1508237555.7,286047002.5,N
1508237575.5,286047001.3,N
1508237595.3,286047001.6,N
1508237615.2,286047002.1,N
1508237635.0,286047002.5,N
1508237635.9,286047002.5,N
1508237655.7,286047001.5,N
1508237675.6,286047004.3,N
1508237695.4,286047003.6,N
1508237715.2,286047001.9,N
1508237735.1,286047004.1,N
1508237736.0,286047004.1,N
1508237755.8,286046998.3,N
1508237775.6,286046997.5,N
1508237795.5,286046997.7,N
1508237815.3,286046995.6,N
1508237835.1,286046992.8,Y
1508237855.9,286046996.4,P
1508237875.7,286046999.4,N
1508237895.5,286046999.8,N
1508237915.4,286047000.2,N
1508237935.2,286047002.7,N
1508237955.0,286046998.1,N
1508237955.9,286046998.1,N
1508237975.8,286046998.3,N
1508237995.6,286047002.4,N
